Hourly Weather Almaraz

Today, 8 March, Monday

Time Temperature Precipitation Wind Pressure Humidity
00:00 +7°C° 0 mm 0 mps 730 mmHg 87%
01:00 +7°C° 0.2 mm 0 mps 730 mmHg 88%
02:00 +7°C° 0.2 mm 0 mps 729 mmHg 89%
03:00 +6°C° 0.2 mm 0 mps 729 mmHg 90%
04:00 +6°C° 0.3 mm 0 mps 729 mmHg 91%
05:00 +6°C° 0.3 mm 0 mps 729 mmHg 92%
06:00 +6°C° 0 mm 0 mps 729 mmHg 93%
07:00 +7°C° 0.3 mm 0 mps 729 mmHg 91%
08:00 +10°C° 0.3 mm 1 mps 730 mmHg 89%
09:00 +11°C° 0.3 mm 1 mps 730 mmHg 87%
10:00 +12°C° 0.3 mm 1 mps 730 mmHg 82%
11:00 +14°C° 0.3 mm 1 mps 730 mmHg 76%
12:00 +15°C° 0.3 mm 1 mps 730 mmHg 71%
13:00 +15°C° 0.7 mm 1 mps 729 mmHg 70%
14:00 +15°C° 0.7 mm 1 mps 729 mmHg 70%
15:00 +15°C° 0.7 mm 2 mps 729 mmHg 70%
16:00 +14°C° 0.6 mm 1 mps 729 mmHg 75%
17:00 +13°C° 0.6 mm 1 mps 729 mmHg 80%
18:00 +12°C° 0.6 mm 1 mps 729 mmHg 85%
19:00 +11°C° 0.1 mm 1 mps 729 mmHg 85%
20:00 +10°C° 0.1 mm 1 mps 730 mmHg 86%
21:00 +8°C° 0.1 mm 1 mps 730 mmHg 86%
22:00 +8°C° 0 mm 1 mps 731 mmHg 86%
23:00 +8°C° 0 mm 1 mps 731 mmHg 86%

Tomorrow, 9 March, Tuesday

Time Temperature Precipitation Wind Pressure Humidity
00:00 +7°C° 0 mm 1 mps 731 mmHg 85%
01:00 +7°C° 0 mm 1 mps 731 mmHg 85%
02:00 +7°C° 0 mm 1 mps 731 mmHg 85%
03:00 +7°C° 0 mm 1 mps 731 mmHg 86%
04:00 +6°C° 0 mm 1 mps 732 mmHg 86%
05:00 +6°C° 0 mm 1 mps 732 mmHg 87%
06:00 +6°C° 0 mm 1 mps 732 mmHg 88%
07:00 +6°C° 0 mm 2 mps 732 mmHg 84%
08:00 +8°C° 0 mm 2 mps 733 mmHg 81%
09:00 +9°C° 0 mm 2 mps 733 mmHg 77%
10:00 +12°C° 0 mm 2 mps 733 mmHg 71%
11:00 +13°C° 0 mm 2 mps 733 mmHg 65%
12:00 +14°C° 0 mm 3 mps 733 mmHg 59%
13:00 +15°C° 0 mm 2 mps 732 mmHg 57%
14:00 +16°C° 0 mm 2 mps 732 mmHg 55%
15:00 +16°C° 0 mm 2 mps 731 mmHg 53%
16:00 +15°C° 0 mm 1 mps 731 mmHg 59%
17:00 +13°C° 0 mm 1 mps 731 mmHg 64%
18:00 +12°C° 0 mm 1 mps 731 mmHg 70%
19:00 +11°C° 0 mm 1 mps 732 mmHg 71%
20:00 +10°C° 0 mm 1 mps 733 mmHg 72%
21:00 +8°C° 0 mm 1 mps 733 mmHg 73%
22:00 +8°C° 0 mm 1 mps 734 mmHg 73%
23:00 +8°C° 0 mm 1 mps 734 mmHg 72%

Day after tomorrow, 10 March, Wednesday

Time Temperature Precipitation Wind Pressure Humidity
00:00 +6°C° 0 mm 0 mps 734 mmHg 72%
01:00 +6°C° 0 mm 0 mps 734 mmHg 73%
02:00 +5°C° 0 mm 0 mps 734 mmHg 73%
03:00 +5°C° 0 mm 0 mps 734 mmHg 74%
04:00 +5°C° 0 mm 0 mps 734 mmHg 74%
05:00 +4°C° 0 mm 0 mps 734 mmHg 75%
06:00 +4°C° 0 mm 0 mps 735 mmHg 75%
07:00 +6°C° 0 mm 0 mps 735 mmHg 70%
08:00 +8°C° 0 mm 0 mps 736 mmHg 66%
09:00 +10°C° 0 mm 0 mps 736 mmHg 61%
10:00 +12°C° 0 mm 0 mps 736 mmHg 57%
11:00 +15°C° 0 mm 1 mps 736 mmHg 53%
12:00 +16°C° 0 mm 1 mps 736 mmHg 49%
13:00 +18°C° 0 mm 1 mps 736 mmHg 48%
14:00 +18°C° 0 mm 1 mps 736 mmHg 47%
15:00 +18°C° 0 mm 2 mps 736 mmHg 45%
16:00 +16°C° 0 mm 1 mps 736 mmHg 52%
17:00 +15°C° 0 mm 1 mps 735 mmHg 59%
18:00 +13°C° 0 mm 1 mps 735 mmHg 66%
19:00 +12°C° 0 mm 1 mps 736 mmHg 68%
20:00 +10°C° 0 mm 1 mps 737 mmHg 70%
21:00 +9°C° 0 mm 1 mps 737 mmHg 72%
22:00 +9°C° 0 mm 1 mps 737 mmHg 72%
23:00 +8°C° 0 mm 0 mps 738 mmHg 72%

11 March, Thursday

Time Temperature Precipitation Wind Pressure Humidity
00:00 +7°C° 0 mm 0 mps 738 mmHg 72%
01:00 +7°C° 0 mm 0 mps 738 mmHg 71%
02:00 +7°C° 0 mm 0 mps 738 mmHg 71%
03:00 +7°C° 0 mm 0 mps 737 mmHg 70%
04:00 +7°C° 0 mm 0 mps 738 mmHg 72%
05:00 +6°C° 0 mm 0 mps 738 mmHg 73%
06:00 +6°C° 0 mm 0 mps 738 mmHg 75%
07:00 +9°C° 0 mm 1 mps 738 mmHg 72%
08:00 +10°C° 0 mm 1 mps 738 mmHg 69%
09:00 +12°C° 0 mm 1 mps 739 mmHg 66%
10:00 +13°C° 0 mm 2 mps 739 mmHg 63%
11:00 +15°C° 0 mm 2 mps 739 mmHg 59%
12:00 +17°C° 0 mm 3 mps 739 mmHg 56%
13:00 +17°C° 0 mm 3 mps 738 mmHg 57%
14:00 +18°C° 0 mm 3 mps 738 mmHg 58%
15:00 +18°C° 0 mm 3 mps 737 mmHg 60%
16:00 +17°C° 0 mm 3 mps 737 mmHg 67%
17:00 +16°C° 0 mm 3 mps 737 mmHg 74%
18:00 +14°C° 0 mm 2 mps 737 mmHg 81%
19:00 +13°C° 0 mm 2 mps 737 mmHg 84%
20:00 +12°C° 0 mm 2 mps 738 mmHg 88%
21:00 +10°C° 0 mm 2 mps 738 mmHg 92%
22:00 +11°C° 0 mm 1 mps 738 mmHg 93%
23:00 +10°C° 0 mm 1 mps 738 mmHg 93%

12 March, Friday

Time Temperature Precipitation Wind Pressure Humidity
00:00 +10°C° 0 mm 1 mps 738 mmHg 93%
01:00 +9°C° 0 mm 1 mps 737 mmHg 94%
02:00 +9°C° 0 mm 1 mps 737 mmHg 94%
03:00 +9°C° 0 mm 1 mps 737 mmHg 94%
04:00 +9°C° 0 mm 1 mps 737 mmHg 94%
05:00 +8°C° 0 mm 1 mps 736 mmHg 94%
06:00 +8°C° 0 mm 1 mps 736 mmHg 94%
07:00 +10°C° 0 mm 1 mps 737 mmHg 90%
08:00 +11°C° 0 mm 1 mps 737 mmHg 85%
09:00 +13°C° 0 mm 2 mps 738 mmHg 81%
10:00 +13°C° 0 mm 3 mps 737 mmHg 73%
11:00 +15°C° 0 mm 4 mps 737 mmHg 65%
12:00 +16°C° 0 mm 5 mps 737 mmHg 57%
13:00 +16°C° 0 mm 5 mps 737 mmHg 53%
14:00 +16°C° 0 mm 5 mps 736 mmHg 50%
15:00 +16°C° 0 mm 5 mps 736 mmHg 46%
16:00 +14°C° 0 mm 4 mps 736 mmHg 52%
17:00 +13°C° 0 mm 3 mps 736 mmHg 58%
18:00 +11°C° 0 mm 3 mps 736 mmHg 63%
19:00 +10°C° 0 mm 2 mps 736 mmHg 66%
20:00 +8°C° 0 mm 2 mps 737 mmHg 69%
21:00 +8°C° 0 mm 1 mps 737 mmHg 72%
22:00 +8°C° 0 mm 1 mps 738 mmHg 72%
23:00 +7°C° 0 mm 1 mps 738 mmHg 73%

13 March, Saturday

Time Temperature Precipitation Wind Pressure Humidity
00:00 +7°C° 0 mm 1 mps 738 mmHg 73%
01:00 +5°C° 0 mm 0 mps 738 mmHg 74%
02:00 +5°C° 0 mm 0 mps 738 mmHg 75%
03:00 +5°C° 0 mm 0 mps 738 mmHg 76%
04:00 +5°C° 0 mm 0 mps 738 mmHg 77%
05:00 +4°C° 0 mm 0 mps 738 mmHg 78%
06:00 +4°C° 0 mm 0 mps 738 mmHg 79%
07:00 +6°C° 0 mm 0 mps 738 mmHg 72%
08:00 +9°C° 0 mm 1 mps 739 mmHg 66%
09:00 +11°C° 0 mm 1 mps 739 mmHg 60%
10:00 +13°C° 0 mm 1 mps 739 mmHg 56%
11:00 +15°C° 0 mm 1 mps 739 mmHg 53%
12:00 +18°C° 0 mm 1 mps 738 mmHg 49%
13:00 +18°C° 0 mm 1 mps 738 mmHg 48%
14:00 +17°C° 0 mm 2 mps 737 mmHg 47%
15:00 +18°C° 0 mm 2 mps 737 mmHg 46%
16:00 +16°C° 0 mm 2 mps 737 mmHg 52%
17:00 +15°C° 0 mm 1 mps 737 mmHg 58%
18:00 +13°C° 0 mm 1 mps 736 mmHg 64%
19:00 +12°C° 0 mm 1 mps 737 mmHg 66%
20:00 +10°C° 0 mm 1 mps 737 mmHg 67%
21:00 +9°C° 0 mm 1 mps 738 mmHg 69%
22:00 +9°C° 0 mm 1 mps 738 mmHg 69%
23:00 +7°C° 0 mm 0 mps 738 mmHg 69%
Show more